World > North America > United States > Nevada

Pyramid, Nevada Regional Weather

Lat: 40.08N, Lon: 119.7W
Wx Zone: NVZ004
Feedback

Pyramid, NV Regional Weather

Expires:201909211200;;122186
ASUS45 KREV 211110
RWRNV 
NEVADA REGIONAL WEATHER ROUNDUP
NATIONAL WEATHER SERVICE RENO NV
400 AM PDT SAT SEP 21 2019

NOTE: "FAIR" INDICATES FEW OR NO CLOUDS BELOW 12,000 FEET WITH NO
SIGNIFICANT WEATHER AND/OR OBSTRUCTIONS TO VISIBILITY.


NVZ001-003-004-211200-
WESTERN NEVADA
  
CITY           SKY/WX    TMP DP  RH WIND       PRES   REMARKS
RENO           CLEAR     46  35  65 W3        30.15S                  
CARSON CITY    FAIR      41  28  60 CALM      30.15S                  
MINDEN         FAIR      34  28  80 CALM      30.17S                  
FALLON         CLEAR     42  32  67 CALM      30.13S                  
LOVELOCK       CLEAR     50  37  61 N8        30.14R                  
HAWTHORNE      CLEAR     50  34  53 SW5       30.14R                  
$$


SKY/WX - Weather  TMP - Temperature  DP - Dew Point  RH - Relative Humidity
WIND - Wind Direction/Speed PRES - Barometric Pressure VSB - Visibility
WCI - Wind Chill Index E13G22 Wind - East Wind 13 mph/Gusts of 22 mph